EW0923 Weather Reports


Display with metric or nautical units.
time (UTC)temp
F
wind
direction
speed
MPH
gust
MPH
rain 1hr
in
rain 24hr
in
rain mn
in
humidity
%
barometer
mb
20260904192025 85 273 1.0 4.0 0.00 0.10 0.10 60 1010.9
20260904191543 85 274 1.0 4.0 0.00 0.10 0.10 61 1011.0
20260904191028 85 295 1.0 4.0 0.00 0.10 0.10 61 1011.1
20260904190528 85 289 1.0 4.0 0.00 0.10 0.10 61 1011.2
20260904190047 85 335 0.0 8.0 0.00 0.10 0.10 60 1011.3
20260904185529 85 300 1.0 8.0 0.00 0.10 0.10 60 1011.3
20260904185029 85 30 3.0 8.0 0.00 0.10 0.10 59 1011.4
20260904184547 86 298 1.0 12.0 0.00 0.10 0.10 59 1011.5
20260904184031 86 284 1.0 12.0 0.00 0.10 0.10 58 1011.4
20260904183532 87 304 3.0 11.0 0.00 0.10 0.10 58 1011.5
20260904183100 87 298 1.0 7.0 0.00 0.10 0.10 58 1011.5
20260904182529 87 274 2.0 7.0 0.00 0.10 0.10 58 1011.5
20260904182033 86 282 2.0 4.0 0.00 0.10 0.10 59 1011.6
20260904181551 86 327 1.0 4.0 0.00 0.10 0.10 60 1011.5
20260904181028 86 300 1.0 5.0 0.00 0.10 0.10 59 1011.5
20260904180530 86 293 2.0 8.0 0.00 0.10 0.10 59 1011.3
20260904180058 85 259 1.0 9.0 0.00 0.10 0.10 58 1011.4
20260904175530 86 309 3.0 9.0 0.00 0.10 0.10 59 1011.3
20260904175028 86 329 1.0 8.0 0.00 0.10 0.10 59 1011.5
20260904174552 87 327 2.0 6.0 0.00 0.10 0.10 58 1011.4
20260904174030 86 321 1.0 8.0 0.00 0.10 0.10 58 1011.4
20260904173528 86 292 3.0 8.0 0.00 0.10 0.10 59 1011.4
20260904173112 86 346 2.0 7.0 0.00 0.10 0.10 58 1011.5
20260904172529 86 301 1.0 8.0 0.00 0.10 0.10 60 1011.4
20260904172029 86 303 2.0 8.0 0.00 0.10 0.10 60 1011.6
20260904171553 86 330 2.0 8.0 0.00 0.10 0.10 60 1011.6
20260904171028 87 314 1.0 9.0 0.00 0.10 0.10 60 1011.6
20260904170529 86 289 2.0 9.0 0.00 0.10 0.10 62 1011.5
20260904170105 86 265 1.0 9.0 0.00 0.10 0.10 61 1011.5
20260904165529 85 312 4.0 9.0 0.00 0.10 0.10 61 1011.6
20260904165029 85 324 2.0 7.0 0.00 0.10 0.10 61 1011.6
20260904164556 85 318 3.0 7.0 0.00 0.10 0.10 60 1011.5
20260904164028 85 300 3.0 7.0 0.00 0.10 0.10 63 1011.5
20260904163534 85 296 1.0 6.0 0.00 0.10 0.10 63 1011.5
20260904163051 86 273 1.0 5.0 0.00 0.10 0.10 62 1011.5
20260904162526 86 327 2.0 9.0 0.00 0.10 0.10 61 1011.6
20260904162028 86 346 3.0 9.0 0.00 0.10 0.10 60 1011.6
20260904161548 86 71 1.0 9.0 0.00 0.10 0.10 62 1011.6
20260904161029 85 336 3.0 10.0 0.00 0.10 0.10 61 1011.6
20260904160533 85 43 2.0 10.0 0.00 0.10 0.10 63 1011.6
20260904160048 84 350 4.0 10.0 0.00 0.10 0.10 63 1011.9
20260904155930 85 57 2.0 10.0 0.00 0.10 0.10 62 1011.9
20260904155025 84 27 4.0 11.0 0.00 0.10 0.10 63 1011.9
20260904154543 85 341 4.0 11.0 0.00 0.10 0.10 63 1012.1
20260904154023 85 24 2.0 8.0 0.00 0.10 0.10 67 1012.1
20260904153527 84 329 1.0 8.0 0.00 0.10 0.10 66 1012.0
20260904153058 84 306 3.0 8.0 0.00 0.10 0.10 65 1012.1
20260904152526 83 313 2.0 9.0 0.00 0.10 0.10 67 1012.0
20260904152024 83 313 2.0 9.0 0.00 0.10 0.10 67 1012.0
20260904151549 83 319 3.0 8.0 0.00 0.10 0.10 67 1012.0
20260904151028 83 295 1.0 5.0 0.00 0.10 0.10 68 1011.9
20260904150529 83 281 1.0 5.0 0.00 0.10 0.10 69 1012.0
20260904150052 83 285 2.0 8.0 0.00 0.10 0.10 69 1012.0
20260904145526 82 301 3.0 10.0 0.00 0.10 0.10 68 1011.8
20260904145025 82 324 2.0 10.0 0.00 0.10 0.10 69 1012.0
20260904144554 82 311 3.0 10.0 0.00 0.10 0.10 69 1012.0
20260904144028 82 346 4.0 11.0 0.00 0.10 0.10 69 1011.9
20260904143527 82 290 3.0 11.0 0.00 0.10 0.10 70 1011.9
20260904143049 82 320 3.0 12.0 0.00 0.10 0.10 70 1011.8
20260904142526 81 315 3.0 12.0 0.00 0.10 0.10 71 1011.8
20260904142025 81 324 3.0 11.0 0.00 0.10 0.10 72 1011.8
20260904141548 81 350 3.0 11.0 0.00 0.10 0.10 71 1011.9
20260904141026 81 302 2.0 8.0 0.00 0.10 0.10 72 1011.8
20260904140524 81 333 1.0 9.0 0.00 0.10 0.10 73 1011.7
20260904140046 81 347 2.0 9.0 0.00 0.10 0.10 74 1011.7
20260904135524 80 311 4.0 9.0 0.00 0.10 0.10 74 1011.7
20260904135024 80 54 2.0 6.0 0.00 0.10 0.10 76 1011.7
20260904134545 80 344 1.0 9.0 0.00 0.10 0.10 76 1011.7
20260904134024 79 304 3.0 9.0 0.00 0.10 0.10 77 1011.7
20260904133527 79 13 3.0 9.0 0.00 0.10 0.10 77 1011.7
20260904133047 79 322 2.0 8.0 0.00 0.10 0.10 78 1011.7
20260904132524 78 300 2.0 8.0 0.00 0.10 0.10 78 1011.8
20260904132025 78 289 2.0 8.0 0.00 0.10 0.10 79 1011.8
20260904131545 78 336 4.0 8.0 0.00 0.10 0.10 79 1011.8
20260904131028 78 304 1.0 4.0 0.00 0.10 0.10 80 1011.8
20260904130526 78 288 1.0 4.0 0.00 0.10 0.10 81 1011.8
20260904130046 77 306 1.0 5.0 0.00 0.10 0.10 81 1012.0
20260904125529 77 308 1.0 5.0 0.00 0.11 0.10 82 1011.9
20260904125027 76 321 0.0 4.0 0.00 0.11 0.10 84 1011.9
20260904124558 76 290 1.0 4.0 0.00 0.11 0.10 84 1011.9
20260904124028 76 335 1.0 2.0 0.00 0.11 0.10 84 1011.9
20260904123524 76 288 1.0 3.0 0.00 0.11 0.10 84 1012.0
20260904123049 76 298 1.0 3.0 0.00 0.11 0.10 84 1011.9
20260904122524 75 285 1.0 4.0 0.00 0.11 0.10 84 1011.9
20260904122024 75 291 1.0 4.0 0.00 0.11 0.10 85 1012.0
20260904121544 75 286 0.0 3.0 0.00 0.11 0.10 85 1011.9
20260904121024 75 25 0.0 4.0 0.00 0.11 0.10 86 1011.9
20260904120528 75 297 0.0 4.0 0.00 0.11 0.10 86 1012.0
20260904120057 74 279 1.0 4.0 0.00 0.11 0.10 86 1012.0
20260904115528 74 244 0.0 4.0 0.00 0.11 0.10 88 1011.9
20260904115028 74 242 1.0 4.0 0.00 0.11 0.10 88 1011.8
20260904114548 74 254 1.0 2.0 0.00 0.11 0.10 89 1011.8
20260904114028 73 0 0.0 2.0 0.00 0.11 0.10 90 1011.8
20260904113526 73 263 0.0 2.0 0.00 0.11 0.10 90 1011.6
20260904113051 73 276 1.0 2.0 0.00 0.11 0.10 91 1011.5
20260904112530 73 280 0.0 2.0 0.00 0.11 0.10 91 1011.5
20260904112030 72 276 0.0 2.0 0.00 0.11 0.10 92 1011.5
20260904111609 72 0 0.0 1.0 0.00 0.11 0.10 92 1011.5
20260904111028 72 298 0.0 1.0 0.00 0.11 0.10 93 1011.5
20260904110531 72 0 0.0 2.0 0.00 0.11 0.10 93 1011.4
20260904110055 72 274 0.0 2.0 0.00 0.11 0.10 93 1011.3
20260904105528 72 258 0.0 1.0 0.00 0.11 0.10 93 1011.3
20260904105028 72 269 0.0 1.0 0.00 0.11 0.10 93 1011.2
20260904104550 72 0 0.0 3.0 0.00 0.11 0.10 93 1011.1
20260904104028 72 0 0.0 3.0 0.00 0.11 0.10 93 1011.0
20260904103531 73 267 0.0 1.0 0.00 0.11 0.10 93 1011.0
20260904103046 73 279 0.0 3.0 0.00 0.11 0.10 92 1010.9
20260904102529 73 0 0.0 4.0 0.00 0.11 0.10 92 1011.0
20260904102029 73 273 0.0 5.0 0.00 0.11 0.10 92 1010.9
20260904101548 73 0 0.0 5.0 0.00 0.11 0.10 93 1010.9
20260904101028 73 261 0.0 2.0 0.00 0.11 0.10 93 1011.0
20260904100533 73 267 0.0 3.0 0.00 0.11 0.10 93 1010.9
20260904100053 73 279 1.0 3.0 0.00 0.11 0.10 93 1010.9
20260904095528 73 273 1.0 3.0 0.00 0.37 0.10 93 1010.7
20260904095027 73 265 0.0 2.0 0.00 0.37 0.10 93 1010.8
20260904094559 73 269 1.0 2.0 0.00 0.37 0.10 93 1010.7
20260904094029 73 0 0.0 3.0 0.00 0.37 0.10 93 1010.7
20260904093527 74 296 0.0 3.0 0.00 0.37 0.10 93 1010.7
20260904093100 74 288 1.0 8.0 0.00 0.37 0.10 93 1010.8
20260904092530 74 290 1.0 8.0 0.00 0.37 0.10 93 1010.8
20260904092028 74 262 2.0 8.0 0.00 0.37 0.10 93 1011.0
20260904091551 74 288 1.0 5.0 0.00 0.37 0.10 93 1010.9
20260904091029 74 266 1.0 5.0 0.00 0.37 0.10 93 1011.1
20260904090529 74 227 1.0 9.0 0.00 0.37 0.10 93 1011.0
20260904090047 74 294 2.0 9.0 0.00 0.37 0.10 93 1011.2
20260904085528 74 275 1.0 9.0 0.00 0.54 0.10 93 1011.2
20260904085031 74 281 2.0 6.0 0.00 0.54 0.10 94 1011.2
20260904084555 74 221 1.0 6.0 0.00 0.54 0.10 94 1011.3
20260904084032 74 0 0.0 3.0 0.00 0.54 0.10 94 1011.2
20260904083528 74 268 1.0 4.0 0.00 0.54 0.10 94 1011.1
20260904083052 74 330 1.0 8.0 0.00 0.54 0.10 94 1011.1
20260904082528 74 284 2.0 8.0 0.00 0.54 0.10 95 1011.2
20260904082028 74 295 0.0 6.0 0.00 0.54 0.10 95 1011.3
20260904081607 74 286 1.0 7.0 0.00 0.54 0.10 95 1011.4
20260904081028 74 0 1.0 7.0 0.00 0.54 0.10 95 1011.5
20260904080526 74 288 1.0 4.0 0.00 0.54 0.10 95 1011.4
20260904080050 74 292 1.0 4.0 0.00 0.54 0.10 95 1011.4
20260904075528 74 267 0.0 4.0 0.00 0.55 0.10 95 1011.3
20260904075026 74 268 1.0 4.0 0.00 0.55 0.10 95 1011.2
20260904074607 74 263 1.0 4.0 0.00 0.55 0.10 95 1011.2
20260904074028 73 277 0.0 3.0 0.00 0.55 0.10 95 1011.2
20260904073528 73 263 0.0 2.0 0.00 0.55 0.10 95 1011.1
20260904073104 73 0 0.0 2.0 0.00 0.55 0.10 95 1011.0
20260904072528 73 0 0.0 1.0 0.00 0.55 0.10 95 1011.0
20260904072028 73 246 0.0 1.0 0.00 0.55 0.10 95 1010.9
20260904071551 73 0 0.0 0.0 0.00 0.55 0.10 95 1010.9
20260904071028 73 0 0.0 1.0 0.00 0.55 0.10 95 1010.9
20260904070531 73 0 0.0 1.0 0.00 0.55 0.10 95 1010.7
20260904070103 73 0 0.0 1.0 0.00 0.55 0.10 95 1010.4
20260904065526 73 0 0.0 1.0 0.00 0.96 0.10 95 1010.6
20260904065026 73 0 0.0 1.0 0.00 0.96 0.10 95 1010.5
20260904064547 73 0 0.0 1.0 0.00 0.96 0.10 95 1010.7
20260904064028 73 0 0.0 1.0 0.00 0.96 0.10 95 1010.6
20260904063527 73 240 0.0 1.0 0.00 0.96 0.10 95 1010.6
20260904063057 73 204 0.0 1.0 0.00 0.96 0.10 95 1010.6
20260904062532 73 0 0.0 2.0 0.00 0.96 0.10 95 1010.7
20260904062027 73 0 0.0 2.0 0.00 0.96 0.10 95 1010.8
20260904061551 73 0 0.0 2.0 0.00 0.96 0.10 95 1010.7
20260904061028 73 0 0.0 2.0 0.00 0.96 0.10 95 1010.6
20260904060526 73 0 0.0 2.0 0.00 0.96 0.10 95 1010.7
20260904060111 73 0 0.0 2.0 0.00 0.96 0.10 95 1010.9
20260904055528 73 0 0.0 1.0 0.00 0.96 0.10 95 1010.8
20260904055029 73 0 0.0 1.0 0.00 0.96 0.10 95 1010.9
20260904054549 73 0 0.0 0.0 0.00 0.96 0.10 94 1011.0
20260904054029 73 0 0.0 1.0 0.02 0.96 0.10 94 1011.2
20260904053529 73 0 0.0 1.0 0.03 0.96 0.10 94 1011.1
20260904053056 73 0 0.0 1.0 0.08 0.96 0.10 94 1011.1
20260904052525 73 0 0.0 1.0 0.10 0.96 0.10 94 1011.1
20260904052028 73 0 0.0 1.0 0.10 0.96 0.10 94 1011.2
20260904051551 73 0 0.0 1.0 0.10 0.96 0.10 94 1011.6
20260904051027 73 0 0.0 2.0 0.10 0.96 0.10 93 1011.6
20260904050526 73 0 0.0 2.0 0.10 0.96 0.10 93 1011.6
20260904050048 74 0 0.0 2.0 0.10 0.96 0.10 93 1011.5
20260904045528 74 0 0.0 2.0 0.10 0.96 0.10 93 1011.4
20260904045032 74 211 1.0 3.0 0.10 0.96 0.10 92 1011.3
20260904044547 74 95 0.0 7.0 0.10 0.96 0.10 92 1011.3
20260904044029 74 255 1.0 14.0 0.08 0.94 0.08 91 1012.2
20260904043528 75 294 3.0 14.0 0.07 0.93 0.07 90 1012.4
20260904043057 76 307 3.0 13.0 0.02 0.88 0.02 87 1012.7
20260904042530 76 297 0.0 2.0 0.00 0.86 0.00 86 1012.6
20260904042029 76 161 0.0 0.0 0.00 0.86 0.00 86 1012.3
20260904041552 76 157 0.0 0.0 0.00 0.86 0.00 86 1012.3
20260904041026 76 0 0.0 0.0 0.00 0.86 0.00 86 1011.8
20260904040529 75 0 0.0 0.0 0.00 0.86 0.00 87 1011.7
20260904040049 75 0 0.0 0.0 0.00 0.86 0.00 88 1011.9
20260904035527 75 156 0.0 0.0 0.00 0.86 0.86 88 1011.9
20260904035027 75 0 0.0 0.0 0.00 0.86 0.86 89 1011.9
20260904034551 75 0 0.0 0.0 0.00 0.86 0.86 89 1011.9
20260904034025 75 0 0.0 0.0 0.00 0.86 0.86 89 1012.1
20260904033529 75 0 0.0 0.0 0.00 0.86 0.86 89 1012.1
20260904033052 75 0 0.0 0.0 0.00 0.86 0.86 89 1012.3
20260904032530 75 0 0.0 0.0 0.00 0.86 0.86 89 1012.3
20260904032028 75 0 0.0 0.0 0.00 0.86 0.86 89 1012.4
20260904031551 75 0 0.0 0.0 0.00 0.86 0.86 88 1012.4
20260904031027 75 0 0.0 0.0 0.00 0.86 0.86 88 1012.5
20260904030526 75 0 0.0 0.0 0.00 0.86 0.86 88 1012.4
20260904030048 76 0 0.0 0.0 0.00 0.86 0.86 88 1012.5
20260904025551 76 0 0.0 0.0 0.00 0.86 0.86 88 1012.5
20260904025025 76 0 0.0 0.0 0.00 0.86 0.86 87 1012.6
20260904024550 76 0 0.0 0.0 0.00 0.86 0.86 86 1012.4
20260904024029 76 0 0.0 0.0 0.00 0.86 0.86 86 1012.2
20260904023525 76 0 0.0 0.0 0.00 0.86 0.86 86 1012.3
20260904023049 77 0 0.0 0.0 0.00 0.86 0.86 85 1012.4
20260904022526 77 0 0.0 1.0 0.00 0.86 0.86 84 1012.5
20260904022026 77 0 0.0 1.0 0.00 0.86 0.86 84 1012.5
20260904021556 77 156 0.0 1.0 0.00 0.86 0.86 84 1012.3
20260904021026 77 156 0.0 1.0 0.00 0.86 0.86 84 1012.4
20260904020527 77 0 0.0 1.0 0.00 0.86 0.86 83 1012.5
20260904020049 77 0 0.0 1.0 0.00 0.86 0.86 83 1012.6
20260904015528 77 0 0.0 1.0 0.00 0.86 0.86 83 1012.6
20260904015028 77 0 0.0 1.0 0.00 0.86 0.86 83 1012.8
20260904014616 77 0 0.0 0.0 0.00 0.86 0.86 83 1012.7
20260904014026 78 0 0.0 1.0 0.00 0.86 0.86 83 1012.9
20260904013526 78 0 0.0 1.0 0.00 0.86 0.86 83 1013.0
20260904013054 78 275 0.0 1.0 0.00 0.86 0.86 82 1012.9
20260904012529 78 250 0.0 1.0 0.00 0.86 0.86 81 1012.9
20260904012026 78 0 0.0 1.0 0.00 0.86 0.86 81 1013.0
20260904011547 78 0 0.0 1.0 0.00 0.86 0.86 80 1013.1
20260904011028 78 0 0.0 0.0 0.00 0.86 0.86 80 1013.1
20260904010527 79 0 0.0 0.0 0.00 0.86 0.86 80 1013.2
20260904010051 79 0 0.0 1.0 0.00 0.86 0.86 80 1013.2
20260904005528 79 0 0.0 2.0 0.00 0.86 0.86 79 1013.0
20260904005030 79 271 0.0 2.0 0.00 0.86 0.86 79 1013.0
20260904004548 79 241 0.0 4.0 0.00 0.86 0.86 79 1013.0
20260904004027 79 256 1.0 4.0 0.00 0.86 0.86 79 1013.0
20260904003527 79 278 0.0 3.0 0.00 0.86 0.86 79 1012.9
20260904003046 79 230 0.0 3.0 0.00 0.86 0.86 79 1012.8
20260904002529 79 254 0.0 3.0 0.00 0.86 0.86 79 1012.6
20260904002028 79 259 0.0 3.0 0.00 0.86 0.86 79 1012.8
20260904001546 79 271 0.0 3.0 0.00 0.86 0.86 79 1012.7
20260904001029 79 277 0.0 3.0 0.00 0.86 0.86 79 1012.7
20260904000526 80 0 0.0 2.0 0.00 0.86 0.86 79 1012.7
20260904000137 80 257 0.0 2.0 0.00 0.86 0.86 79 1012.6
20260903235530 80 269 0.0 2.0 0.00 0.86 0.86 79 1012.7
20260903235028 80 0 0.0 2.0 0.00 0.86 0.86 79 1012.7
20260903234551 80 0 0.0 3.0 0.00 0.86 0.86 79 1012.5
20260903234028 80 0 1.0 3.0 0.00 0.86 0.86 78 1012.5
20260903233526 81 279 0.0 1.0 0.00 0.86 0.86 78 1012.4
20260903233046 81 0 0.0 3.0 0.00 0.86 0.86 78 1012.4
20260903232530 81 271 0.0 3.0 0.00 0.86 0.86 78 1012.4
20260903232028 81 271 1.0 3.0 0.00 0.86 0.86 78 1012.4
20260903231554 81 0 1.0 3.0 0.00 0.86 0.86 78 1012.3
20260903231029 81 0 1.0 4.0 0.00 0.86 0.86 78 1012.4
20260903230531 82 296 0.0 7.0 0.00 0.86 0.86 77 1012.3
20260903230051 82 251 2.0 7.0 0.00 0.86 0.86 77 1012.2
20260903225531 82 261 1.0 7.0 0.00 0.86 0.86 77 1012.3
20260903225027 82 292 2.0 7.0 0.00 0.86 0.86 77 1012.1
20260903224557 83 268 0.0 9.0 0.00 0.86 0.86 76 1012.0
20260903224028 83 275 2.0 10.0 0.00 0.86 0.86 75 1012.0
20260903223530 83 317 3.0 10.0 0.00 0.86 0.86 75 1012.0
20260903223050 83 0 1.0 4.0 0.00 0.86 0.86 75 1011.9
20260903222528 83 273 1.0 6.0 0.00 0.86 0.86 75 1012.0
20260903222027 83 277 2.0 9.0 0.00 0.86 0.86 75 1012.0
20260903221551 83 240 2.0 9.0 0.00 0.86 0.86 75 1012.0
20260903221025 83 274 1.0 8.0 0.00 0.86 0.86 75 1012.1
20260903220528 83 286 1.0 9.0 0.00 0.86 0.86 76 1012.0
20260903220111 83 271 2.0 9.0 0.00 0.86 0.86 75 1012.0
20260903215525 83 242 4.0 9.0 0.00 0.86 0.86 74 1012.0
20260903215029 84 257 0.0 7.0 0.00 0.86 0.86 74 1011.9
20260903214551 84 291 1.0 7.0 0.00 0.86 0.86 74 1011.8
20260903214028 84 271 1.0 6.0 0.00 0.86 0.86 75 1012.0
20260903213529 84 232 2.0 10.0 0.00 0.86 0.86 73 1011.9
20260903213051 84 284 3.0 10.0 0.00 0.86 0.86 73 1011.9
20260903212528 84 284 2.0 11.0 0.00 0.86 0.86 74 1011.9
20260903212028 84 250 4.0 11.0 0.00 0.86 0.86 74 1011.8
20260903211547 84 286 3.0 12.0 0.00 0.86 0.86 75 1011.9
20260903211030 84 271 1.0 13.0 0.00 0.86 0.86 75 1011.9
20260903210526 84 271 5.0 13.0 0.00 0.86 0.86 74 1011.9
20260903205527 84 265 3.0 14.0 0.00 0.86 0.86 73 1012.0
20260903205028 84 305 2.0 8.0 0.00 0.86 0.86 74 1012.0
20260903204548 84 273 3.0 9.0 0.00 0.86 0.86 73 1012.0
20260903204028 84 242 2.0 9.0 0.00 0.86 0.86 73 1012.0
20260903203541 84 278 3.0 11.0 0.00 0.86 0.86 72 1012.0
20260903203048 84 253 2.0 12.0 0.00 0.86 0.86 73 1012.1
20260903202525 85 261 3.0 12.0 0.00 0.86 0.86 72 1012.1
20260903202025 85 31 4.0 12.0 0.00 0.86 0.86 71 1012.1
20260903201548 85 302 3.0 7.0 0.00 0.86 0.86 71 1012.2
20260903201025 85 199 1.0 7.0 0.00 0.86 0.86 71 1012.4
20260903200525 85 294 1.0 8.0 0.00 0.86 0.86 72 1012.2
20260903200047 85 290 1.0 10.0 0.00 0.86 0.86 71 1012.4
20260903195525 85 273 3.0 10.0 0.00 0.86 0.86 71 1012.4
20260903195029 85 190 3.0 9.0 0.00 0.86 0.86 71 1012.4
20260903194557 85 317 2.0 7.0 0.00 0.86 0.86 71 1012.5
20260903194024 85 261 2.0 10.0 0.00 0.86 0.86 71 1012.5
20260903193524 85 292 3.0 10.0 0.00 0.86 0.86 70 1012.7
20260903193055 84 260 2.0 13.0 0.00 0.86 0.86 72 1012.7
20260903192524 84 346 3.0 13.0 0.00 0.86 0.86 71 1012.9